Date,TemperatureHighF,TemperatureAvgF,TemperatureLowF,DewpointHighF,DewpointAvgF,DewpointLowF,HumidityHigh,HumidityAvg,HumidityLow,PressureMaxIn,PressureMinIn,WindSpeedMaxMPH,WindSpeedAvgMPH,GustSpeedMaxMPH,PrecipitationSumIn
2013-2-1,23.9,15.0,5.0,18.6,2.6,-5.5,80,58,43,30.53,30.25,0,0,0,0.00
2013-2-2,32.1,25.2,18.2,25.9,17.1,8.7,83,71,60,30.26,30.10,0,0,0,0.01
2013-2-3,33.0,26.3,20.1,22.9,16.7,12.6,86,68,43,30.17,30.05,0,0,0,0.00
2013-2-4,43.1,32.3,24.7,26.2,21.9,17.2,79,66,47,30.06,29.85,0,0,0,0.00
2013-2-5,47.7,34.6,24.4,30.8,26.0,19.1,84,72,50,30.15,29.88,0,0,0,0.00
2013-2-6,48.1,35.9,23.6,31.9,28.2,20.3,90,75,50,30.27,30.10,0,0,0,0.00
2013-2-7,40.8,38.0,35.8,38.4,34.5,30.4,91,87,77,30.10,29.87,0,0,0,0.37
2013-2-8,36.9,31.7,29.2,32.8,24.4,21.6,85,74,69,30.44,30.06,0,0,0,0.00
2013-2-9,38.9,34.2,30.5,31.0,26.9,23.2,81,75,67,30.43,30.07,0,0,0,0.00
2013-2-10,50.5,44.1,37.0,47.5,39.8,30.6,91,85,61,30.10,29.56,0,0,0,0.51
2013-2-11,47.5,37.7,27.1,31.7,25.7,22.3,84,62,44,30.17,29.67,0,0,0,0.00
2013-2-12,40.8,30.7,23.3,27.7,24.3,19.7,90,78,55,30.22,29.98,0,0,0,0.00
2013-2-13,51.9,35.2,24.2,32.4,27.2,21.4,90,75,39,29.99,29.80,0,0,0,0.00
2013-2-14,45.9,38.0,31.3,34.8,30.2,26.3,88,74,56,30.07,29.76,0,0,0,0.00
2013-2-15,36.0,30.1,23.6,30.6,17.6,9.5,87,61,33,30.30,30.07,0,0,0,0.00
2013-2-16,34.2,24.3,16.8,13.6,9.5,4.5,70,54,34,30.31,30.20,0,0,0,0.00
2013-2-17,40.9,27.7,12.9,22.4,14.8,5.6,73,59,38,30.28,29.96,0,0,0,0.00
2013-2-18,58.2,42.4,28.6,46.5,33.0,18.8,89,70,52,29.96,29.51,0,0,0,0.18
2013-2-19,30.5,24.3,18.9,19.5,12.5,5.7,72,60,49,30.33,29.83,0,0,0,0.00
2013-2-20,27.1,19.0,8.9,13.5,6.2,-1.5,74,58,43,30.48,30.33,0,0,0,0.00
2013-2-21,32.1,25.5,16.1,29.4,19.3,9.9,90,77,65,30.42,29.91,0,0,0,0.00
2013-2-22,35.5,32.6,28.1,32.5,27.8,21.8,91,83,71,30.05,29.83,0,0,0,0.17
2013-2-23,33.2,25.9,18.2,21.7,17.5,13.3,82,71,57,30.08,30.02,0,0,0,0.00
2013-2-24,40.3,27.8,14.1,28.3,20.5,9.3,84,75,57,30.20,30.07,0,0,0,0.00
2013-2-25,45.6,36.8,29.0,34.9,29.1,23.6,81,74,63,30.16,29.83,0,0,0,0.00
2013-2-26,37.2,35.0,34.4,32.5,31.5,28.4,91,87,72,29.85,29.48,0,0,0,0.57
2013-2-27,39.5,34.7,32.4,33.8,31.2,29.8,91,87,74,29.84,29.60,0,0,0,0.42
2013-2-28,38.6,35.5,33.9,32.3,30.5,28.3,89,82,67,30.12,29.84,0,0,0,0.02